Regional Weather Roundup
Issued by NWS Wakefield, VA

Home | Current Version | Previous Version | Text Only | Print | Product List | Glossary On
Versions: 1 2 3 4 5 6 7 8 9 10 11 12 13 14 15 16 17 18 19 20 21 22 23 24 25 26 27 28 29 30 31 32 33 34 35 36 37 38 39 40 41 42 43 44 45 46 47 48 49 50
053
ASUS41 KAKQ 041715
RWRAKQ

REGIONAL WEATHER ROUNDUP
NATIONAL WEATHER SERVICE WAKEFIELD VA
100 PM EDT WED MAY 04 2016

Note: "fair" indicates few or no clouds below 12,000 feet with no
significant weather and/or obstructions to visibility. * = Denotes
station may not report precipitation (e.g., rain,snow,etc.),
thunder or fog.

VAZ042-051-052>054-056-041800-
NORTHERN VIRGINIA

CITY           SKY/WX    TMP DP  RH WIND       PRES   REMARKS
WASH NATIONAL  CLOUDY    59  52  77 NE5       29.71F
DULLES         CLOUDY    58  53  84 SE3       29.69F
FORT BELVOIR   CLOUDY    58  52  79 N2        29.69F
QUANTICO       CLOUDY    59  53  80 E5        29.70F
FREDERICKSBRG* CLOUDY    60  58  93 CALM      29.68F
STAFFORD*      CLOUDY    57  53  88 CALM      29.73F
WARRENTON      PTSUNNY   63  53  69 E6        29.69F
CULPEPER*      CLOUDY    64  56  76 E3        29.68F
MANASSAS*      NOT AVBL
LEESBURG*      CLOUDY    59  55  88 CALM      29.70F
WINCHESTER     CLOUDY    59  52  77 E12       29.67F
FRONT ROYAL*   CLOUDY    61  52  72 SE5       29.66F
LURAY*         LGT RAIN  61  50  67 N5        29.66F
$$

VAZ048-049-060>072-079>083-041800-
CENTRAL AND SOUTH CENTRAL VIRGINIA

CITY           SKY/WX    TMP DP  RH WIND       PRES   REMARKS
RICHMOND       PTSUNNY   61  55  81 NE6       29.68F
CHESTERFIELD*  PTSUNNY   63  46  55 E5        29.69F
PETERSBURG*    CLOUDY    66  58  77 CALM      29.68F
HANOVER        PTSUNNY   63  54  72 E5        29.69F
TAPPAHANNOCK*  CLOUDY    59  57  96 CALM      29.70S
QUINTON*       CLOUDY    60  56  87 N3        29.68F
CHARLOTTSVILLE PTSUNNY   59  55  87 SE5       29.67F FOG
GORDONSVILLE*  CLOUDY    58  53  82 NW5       29.67F HAZE
ORANGE*        RAIN      61  57  88 CALM      29.70F
LOUISA*        PTSUNNY   66  55  68 NE3       29.66F
BUMPASS*       CLOUDY    61  57  87 E6        29.69S
FARMVILLE*     LGT RAIN  64  59  83 NW3       29.66F
CREWE*         CLOUDY    67  56  67 SE6       29.66F
FORT PICKETT*  NOT AVBL
CHASE CITY*    CLOUDY    67  55  65 CALM      29.68F
CLARKSVILLE*   CLOUDY    68  54  60 N5        29.67F
SOUTH HILL*    PTSUNNY   68  56  67 NW5       29.72F
LAWRENCEVILLE* CLOUDY    63  60  92 CALM      29.67F
EMPORIA*       CLOUDY    64  59  82 N3        29.68F
$$

VAZ088>098-041800-
SOUTHEAST VIRGINIA

CITY           SKY/WX    TMP DP  RH WIND       PRES   REMARKS
NORFOLK        CLOUDY    60  55  83 NE5       29.65F
VIRGINIA BEACH CLOUDY    65  56  72 NE7       29.64F
NORFOLK NAVAL  CLOUDY    60  57  89 NE6       29.67F
WEST POINT*    CLOUDY    60  56  88 NW6       29.69F
SALUDA*        CLOUDY    57  56  97 NW5       29.68R
NEWPORT NEWS   CLOUDY    61  57  87 N3        29.67F
LANGLEY AFB    CLOUDY    59  57  94 VRB3      29.66F
FORT EUSTIS    CLOUDY    60  60  99 NW5       29.65F
WILLIAMSBURG*  FAIR      63  59  88 CALM      29.69F
HR EXEC AP*    CLOUDY    63  57  82 NW3       29.68F
FRANKLIN*      CLOUDY    61  57  86 CALM      29.67F
US460-WAKEFLD  CLOUDY   N/A N/A N/A CALM      29.68F
$$

VAZ020-022-025-037-045-041800-
WEST CENTRAL AND SOUTHWEST VIRGINIA

CITY           SKY/WX    TMP DP  RH WIND       PRES   REMARKS
STAUNTON*      LGT RAIN  57  52  84 NW7       29.69S
WAYNESBORO*    PTSUNNY   64  43  47 SW10      29.66F
HOT SPRINGS VA DRIZZLE   47  45  95 W9        29.70F
LYNCHBURG      FAIR      67  44  43 W9        29.68F
DANVILLE       PTSUNNY   68  45  43 VRB3      29.68F
SOUTH BOSTON*  CLOUDY    68  46  45 CALM      29.67F
MARTINSVILLE   PTSUNNY   65  46  49 SW5       29.71F
ROANOKE        CLOUDY    66  43  43 VRB3      29.69F
BLACKSBURG     CLOUDY    57  44  60 SW8       29.75F
DUBLIN*        CLOUDY    60  45  58 W10       29.74F
MARION*        CLOUDY    54  42  62 SW8       29.77S
HILLSVILLE*    CLOUDY    54  41  61 NW12G17   29.73F
RICHLANDS*     CLOUDY    53  51  92 NW5       29.75F
WISE*          CLOUDY    55  36  47 W5        29.77F
ABINGDON*      FAIR      60  45  56 W8        29.75F
$$

MDZ021>025-VAZ099-100-041800-
SOUTHERN MARYLAND AND THE DELMARVA PENINSULA

CITY           SKY/WX    TMP DP  RH WIND       PRES   REMARKS
PATUXENT RIVER DRIZZLE   56  52  86 NE9       29.69F FOG
BAY BRIDGE APT NOT AVBL
LEONARDTOWN    CLOUDY    54  52  94 N3        29.70F
DOVER          CLOUDY    54  54 100 NE9       29.69F
GEORGETOWN     TSTM      51  51 100 N7        29.68F FOG
EASTON         CLOUDY   N/A N/A N/A NE6       29.74F
CAMBRIDGE      CLOUDY    54  52  94 NE3       29.69F
SALISBURY      LGT RAIN  55  53  93 N10       29.67F
OCEAN CITY     CLOUDY    52  51  97 NE14      29.67F FOG
WALLOPS ISLAND CLOUDY    58  55  90 N7        29.65F
ACCOMACK*      CLOUDY   N/A N/A N/A NE7       29.65F
$$

NCZ012>017-030>032-041800-
NORTH CENTRAL AND EASTERN NORTH CAROLINA

CITY           SKY/WX    TMP DP  RH WIND       PRES   REMARKS
ROANOKE RAPIDS PTSUNNY   64  61  88 CALM      29.66F
RALEIGH        MOSUNNY   70  50  49 CALM      29.68F
ELIZABETH CITY CLOUDY    63  58  83 NW3       29.66F
AHOSKIE*       MOSUNNY   64  60  87 NE3       29.66F
EDENTON*       CLOUDY    64  64 100 CALM      29.67F
CURRITUCK*     NOT AVBL
KILL DEVIL HLS CLOUDY    64  59  82 CALM      29.65S
MANTEO         CLOUDY    65  63  93 N7        29.66S
CAPE HATTERAS  CLOUDY    66  64  93 SW6       29.65F
TARBORO*       CLOUDY    69  63  79 W7        29.67F
GOLDSBORO      CLOUDY    68  67  96 VRB3      29.63F
WASHINGTON     MOSUNNY   69  62  76 CALM      29.64F
GREENVILLE     PTSUNNY   70  63  78 CALM      29.68F
NEW BERN       MOSUNNY   74  65  73 NW5       29.64F
WILMINGTON     PTSUNNY   76  63  64 W10       29.64F
$$

VAZ048-041800-
ELSEWHERE

CITY           SKY/WX    TMP DP  RH WIND       PRES   REMARKS
HARRISBURG PA  CLOUDY    54  49  83 NE6       29.72F
BALTIMORE      CLOUDY    54  50  86 E6        29.71S
ANNAPOLIS      CLOUDY    54  51  90 NE7       29.71S
ANDREWS AFB    CLOUDY    56  52  85 VRB2      29.69F
PHILADELPHIA   CLOUDY    53  47  79 E13       29.74S
HENDERSON NC   PTSUNNY   67  54  63 N3        29.67F
GREENSBORO     PTSUNNY   68  43  40 VRB3      29.69F
ROCKY MOUNT    PTSUNNY   68  60  75 SW3       29.66F
$$

VAZ100-041800-
MARINE

STATION/POSITION TIME  TEMP    WIND        PRES    WAVE   SWELL
                       AIR SEA DIR/SP/G            HT/PER HT/PER
                 (UTC) (F)     (DEG/KT/KT) (MB)    (FT/S) (FT/S)
BRANDYWINE LGT   1600   51      70/ 13/ 15 1006.4R
CAPE MAY NJ      1600   51 57   60/ 12/ 19 1005.5F
LEWES DE         1600   51 55   60/ 12/ 15 1006.2R
15NM E FENWICK I 1650   50 51              1004.3F   5/ 7
OCEAN-CITY-INLET 1600   51 55   30/  9/ 12 1004.9F
WACHAPREAGUE VA  1600   55 62   20/  7/ 10 1004.8F
THOMAS POINT MD  1700   53 59   30/  7/  8 1007.2F
GOOSES REEF MD   1600   54 59   30/  6/  8 1007.1F   1
COVE POINT MD    1600   54      30/  5/  8 1006.3F
SOLOMONS ISLAND  1600   55 62   10/  3/  5   N/A
BISHOPS HEAD MD  1600   55 62   30/  8/  9 1004.9F
PINEY POINT MD   1600          340/  5/  6   N/A
POTOMAC MD       1600   55 61   30/  8/ 10 1004.5F   1
CAMBRIDGE MD     1600   54 62   30/  5/  8 1005.4R
LEWISETTA VA     1600   55 63   30/  3/  4 1005.2F
RAPPAHANNOCK LGT 1600          360/  6/  7 1005.6F
STINGRAY PT      1600   56 62   50/  8/ 10 1005.6F   1/ 3
YORK RVR RNG VA  1600   57      40/  3/  4 1004.6F
YORKTOWN VA      1600   58 63  340/  1/  2 1004.7F
JAMESTOWN VA     1600   58 68  130/  2/  4   N/A     0
DOMINION TERM VA 1600   58     100/  5/  7 1005.2S
KIPTOPEKE VA     1600      62   80/  7/ 10   N/A
CHES BAY BRIDGE  1600   56 61   30/  5/  8 1004.6F
CAPE HENRY VA    1600   55      40/  6/  7   N/A
CHESAPEAKE LGHT  1600   53     360/ 10/ 11 1005.6F
WILLOUBY STN VA  1600   56      60/  4/  5 1006.0F
CAPE HENRY BUOY  1612      57                N/A     4/ 7
CAPE CHARLES BUO 1626      58                N/A     3/ 7   3/ 7
OFFSHORE WE BUOY 1621      57                N/A     4/ 6   3/ 6
64NM E OF VA BCH 1650   55 55  330/  8/ 10 1003.3F   4/ 6   3/ 6
DUCK PIER NC     1600   57     350/  8/  9 1003.9F
44100 DUCK FRF   1624      59                N/A     3/ 5
44056 DUCK FRF   1611      58                N/A     3/ 5
OREGON INLET NC  1600   62 64   40/  4/  5 1003.6F
HATTERAS NC      1600   64 69  230/  7/ 11 1004.2R
DIAMOND SHLS NC  1650   69 71  240/ 16/ 19 1003.8F   4/ 7   2/ 7
CAPE LOOKOUT NC  1700   67     180/ 10/ 11 1003.4F
$$




USA.gov is the U.S. government's official web portal to all federal, state and local government web resources and services.